Location: Arbon
(43.0005°N, 0.7472°E)
Time: 22:49:29
(UTC+00:00)

Explorer 7 - Pass Details

Date: 03 December 2020
Orbit: 484 x 678 km, 50.3° (Epoch: 26 January)

Event Time Altitude Azimuth Distance (km) Brightness Sun altitude
Rises 06:34:06 0° 296° (WNW) 2,761 - -6.8°
Exits shadow 06:36:06 - 290° (WNW) 1,992 9.0 -6.5°
Reaches altitude 10° 06:36:32 10° 288° (WNW) 1,826 8.8 -6.4°
Maximum altitude 06:40:21 36° 221° (SW) 844 7.7 -5.8°
Drops below altitude 10° 06:43:56 10° 154° (SSE) 1,722 10.2 -5.2°
Sets 06:46:11 0° 145° (SE) 2,580 11.5 -4.8°
